[[{"header":{"parameterUnit":"m.s-1","parameterCategory":1,"la1":30.2991,"la2":30.254,"lo1":-89.0895,"lo2":-89.0444,"dy":0.0017,"dx":0.0017,"nx":28,"ny":28,"refTime":"2024-02-27T09:00:00:Z","depth":0,"parameterNumber":2,"parameterNumberName":"U-component_of_WINDS"},"data":[0,0,0,0,0,0,0,0,0,0,0,0,0,0,0,0,0,0,0,0,0,0,0,0,0,0,0,0,0,0,0,0,0,0,0,0,0,0,0,0,0,0,0,0,0,0,0,0,0,0,0,0,0,0,0,0,0,0,1.5199,1.52,0,1.5264,1.5264,1.5265,1.5263,1.5262,1.5261,1.5261,1.5327,1.5329,1.5332,0,0,0,0,0,0,0,0,0,0,0,0,0,1.5075,1.5078,1.5199,1.52,1.5201,1.5264,1.5264,1.5265,1.5263,1.5262,1.5261,1.526,1.5326,1.5329,1.5332,0,0,0,0,0,0,0,0,0,0,0,0,0,1.5133,1.5078,1.5199,1.5207,1.5209,1.5263,1.5264,1.5266,1.5264,1.5262,1.5261,1.526,1.5325,1.5329,1.5333,1.5383,0,0,1.5344,1.5346,0,0,0,0,0,0,0,0,1.513,1.5138,1.5205,1.5207,1.5209,1.5254,1.5245,1.5305,1.5264,1.5243,1.5261,1.5259,1.5304,1.5309,1.5324,1.5386,1.5389,1.5345,1.5347,1.5349,1.535,0,0,0,0,0,0,0,1.5126,1.5135,1.5225,1.5206,1.5208,1.5208,1.5215,1.5256,1.528,1.5244,1.5244,1.5252,1.5304,1.532,1.5326,1.539,1.5345,1.5348,1.5351,1.5352,1.5498,1.55,0,0,0,0,0,0,1.512,1.5132,1.5223,1.5227,1.5165,1.5212,1.5219,1.5241,1.5279,1.5284,1.5253,1.5252,1.5315,1.5321,1.5328,1.5391,1.5349,1.5352,1.5355,1.5497,1.5499,1.55,0,0,0,0,0,0,1.5118,1.5128,1.522,1.5179,1.5191,1.5215,1.5239,1.5243,1.5259,1.5286,1.529,1.5265,1.5314,1.5323,1.537,1.5393,1.5354,1.5358,1.5495,1.5497,1.5499,1.5516,0,0,0,0,0,0,1.5114,1.5127,1.5147,1.518,1.5193,1.526,1.5241,1.5245,1.5266,1.5264,1.5299,1.5303,1.5313,1.5364,1.5374,1.5398,1.5361,1.5493,1.5496,1.5499,1.5513,1.5519,1.5523,0,0,0,0,0,1.511,1.5149,1.5148,1.5159,1.5218,1.5262,1.5269,1.528,1.5267,1.5287,1.5305,1.5302,1.5389,1.5369,1.538,1.5405,1.5491,1.5495,1.5498,1.5511,1.5518,1.5523,0,0,0,0,0,0,1.5117,1.5153,1.5152,1.5203,1.5229,1.5261,1.5286,1.5287,1.5317,1.5315,1.5327,1.5335,1.5382,1.5398,1.5376,1.5457,1.5439,1.5444,1.5445,1.5451,1.5455,1.5451,1.5364,0,0,0,0,0,1.5125,1.5157,1.5187,1.5229,1.5242,1.5262,1.5282,1.5288,1.5316,1.5327,1.5348,1.5375,1.5409,1.5431,1.5463,1.5516,1.5524,1.5539,1.5543,1.5547,1.5552,1.5582,1.559,1.5512,1.5512,1.5512,0,0,1.5141,1.5164,1.5184,1.5231,1.5252,1.5286,1.5271,1.5308,1.5333,1.5333,1.5379,1.5395,1.5426,1.5477,1.55,1.5492,1.5576,1.5552,1.5555,1.5558,1.5587,1.5594,1.5601,1.5514,1.5514,1.5513,0,0,1.5187,1.5208,1.5246,1.5268,1.53,1.5313,1.5322,1.5355,1.5366,1.5412,1.5412,1.5443,1.55,1.5523,1.5542,1.5598,1.5597,1.5608,1.5633,1.5663,1.5669,1.5674,1.5695,1.5702,1.5613,1.5613,1.5613,0,1.5203,1.5254,1.5265,1.5302,1.5323,1.5324,1.5363,1.5384,1.5425,1.544,1.5429,1.5502,1.5523,1.558,1.5593,1.5608,1.562,1.5605,1.5667,1.5673,1.5678,1.5698,1.5706,1.5615,1.5614,1.5614,1.5614,0,1.5272,1.5308,1.5334,1.5375,1.5399,1.5436,1.5453,1.5477,1.5481,1.5495,1.5543,1.5569,1.5607,1.562,1.5625,1.5678,1.5672,1.5664,1.5646,1.5686,1.5706,1.5713,1.5616,1.5616,1.5616,1.5615,0,0,1.5325,1.5372,1.5381,1.54,1.5436,1.5464,1.5502,1.554,1.5559,1.5588,1.5621,1.567,1.5663,1.5685,1.5692,1.5718,1.5762,1.5707,1.5708,1.5717,1.5823,1.5828,1.5837,1.5761,1.5763,1.5764,1.582,0,1.5375,1.5443,1.5455,1.5514,1.5547,1.555,1.5583,1.5609,1.5624,1.5655,1.5671,1.5706,1.5694,1.5707,1.5733,1.5751,1.5783,1.5747,1.5792,1.5794,1.5785,1.5847,1.5853,1.5905,1.5828,1.5829,1.583,0,1.5443,1.5475,1.5537,1.557,1.5585,1.5614,1.565,1.568,1.571,1.5719,1.5743,1.5748,1.5788,1.5768,1.5824,1.5799,1.5818,1.583,1.5832,1.5837,1.5814,1.5854,1.5922,1.593,1.5842,1.5841,1.584,0,1.5476,1.5534,1.5579,1.5595,1.5634,1.5656,1.5673,1.5702,1.5724,1.5755,1.577,1.5805,1.5825,1.5852,1.5867,1.585,1.5922,1.5903,1.5931,1.5931,1.5946,1.5945,1.6018,1.5957,1.5957,1.5957,1.5957,0,1.5532,1.557,1.5595,1.5622,1.5666,1.5679,1.5722,1.5739,1.5765,1.5796,1.58,1.583,1.5847,1.5879,1.589,1.5935,1.5944,1.5953,1.5955,1.5953,1.5952,1.5966,1.5963,1.5959,1.5959,1.5958,1.5958,0,1.5576,1.5594,1.5643,1.5677,1.5686,1.5717,1.5746,1.5773,1.5788,1.5828,1.5838,1.5862,1.59,1.5917,1.5964,1.5972,1.6024,1.6023,1.6013,1.6015,1.6042,1.6039,1.6127,1.614,1.607,1.6071,1.6071,0,1.561,1.564,1.5677,1.5699,1.5717,1.5752,1.5775,1.5789,1.5813,1.585,1.5873,1.5912,1.5943,1.6004,1.6026,1.6062,1.6063,1.6091,1.6068,1.6065,1.6064,1.6063,1.6066,1.6095,1.6096,1.6097,1.6097,0,1.567,1.5678,1.571,1.5747,1.5774,1.5803,1.5832,1.5849,1.5869,1.5895,1.5935,1.5959,1.6008,1.6046,1.6084,1.6102,1.6103,1.6104,1.6113,1.6111,1.6104,1.6109,1.6025,1.6102,1.6102,1.6101,1.6101,1.6101,1.5711,1.5738,1.5769,1.5805,1.5829,1.5856,1.5883,1.5902,1.5935,1.5976,1.5983,1.6025,1.6056,1.6107,1.6126,1.616,1.6153,1.6165,1.6168,1.6171,1.6173,1.6098,1.6167,1.6166,1.6166,1.6166,1.6166,0,1.5771,1.5791,1.5825,1.5865,1.5895,1.5894,1.5926,1.595,1.5987,1.6016,1.6047,1.6093,1.613,1.6155,1.6193,1.6215,1.6217,1.6225,1.6223,1.6228,1.6177,1.6166,1.6223,1.6223,1.6223,1.6223,1.6223,1.6223,1.5806,1.5852,1.5863,1.5921,1.5941,1.5983,1.6002,1.6027,1.605,1.6101,1.6132,1.6148,1.6175,1.6216,1.625,1.6257,1.6271,1.6279,1.6285,1.6237,1.6231,1.6226,1.6215,1.6282,1.6282,1.6334,1.6334,1.6334]},{"header":{"parameterUnit":"m.s-1","parameterCategory":1,"la1":30.2991,"la2":30.254,"lo1":-89.0895,"lo2":-89.0444,"dy":0.0017,"dx":0.0017,"nx":28,"ny":28,"refTime":"2024-02-27T09:00:00:Z","depth":0,"parameterNumber":3,"parameterNumberName":"V-component_of_WINDS"},"data":[0,0,0,0,0,0,0,0,0,0,0,0,0,0,0,0,0,0,0,0,0,0,0,0,0,0,0,0,0,0,0,0,0,0,0,0,0,0,0,0,0,0,0,0,0,0,0,0,0,0,0,0,0,0,0,0,0,0,4.1023,4.1024,0,4.113,4.1131,4.1132,4.1128,4.1127,4.1125,4.1124,4.123,4.1234,4.1238,0,0,0,0,0,0,0,0,0,0,0,0,0,4.0814,4.0818,4.1023,4.1024,4.1026,4.1129,4.1131,4.1132,4.1129,4.1127,4.1125,4.1123,4.1228,4.1233,4.1238,0,0,0,0,0,0,0,0,0,0,0,0,0,4.0911,4.0819,4.1023,4.1036,4.1039,4.1129,4.1131,4.1133,4.1129,4.1127,4.1125,4.1123,4.1226,4.1233,4.1239,4.1321,0,0,4.1258,4.1261,0,0,0,0,0,0,0,0,4.0905,4.0919,4.1033,4.1036,4.1038,4.1114,4.1096,4.1196,4.113,4.1095,4.1124,4.1121,4.1192,4.1201,4.1226,4.1326,4.1331,4.1258,4.1262,4.1265,4.1267,0,0,0,0,0,0,0,4.0899,4.0914,4.1065,4.1035,4.1038,4.1036,4.1048,4.1115,4.1154,4.1098,4.1098,4.111,4.1193,4.122,4.1229,4.1332,4.1258,4.1264,4.1268,4.127,4.1508,4.1511,0,0,0,0,0,0,4.089,4.0908,4.1062,4.1068,4.0965,4.1042,4.1055,4.1092,4.1154,4.1161,4.1112,4.111,4.121,4.1221,4.1232,4.1335,4.1265,4.1271,4.1274,4.1506,4.1509,4.1511,0,0,0,0,0,0,4.0885,4.0903,4.1057,4.0989,4.1008,4.1048,4.1089,4.1095,4.1122,4.1165,4.1172,4.1132,4.1209,4.1223,4.13,4.1339,4.1274,4.1279,4.1503,4.1507,4.151,4.154,0,0,0,0,0,0,4.0879,4.0902,4.0934,4.0989,4.1012,4.1124,4.1092,4.1099,4.1133,4.1131,4.1186,4.1192,4.1209,4.1291,4.1306,4.1346,4.1284,4.1499,4.1504,4.1509,4.1536,4.1545,4.1552,0,0,0,0,0,4.0872,4.0937,4.0936,4.0954,4.1053,4.1127,4.1139,4.1158,4.1136,4.1169,4.1197,4.1191,4.1332,4.1299,4.1316,4.1358,4.1497,4.1503,4.1508,4.1533,4.1543,4.1552,0,0,0,0,0,0,4.0883,4.0944,4.0944,4.1029,4.1073,4.1126,4.1168,4.1168,4.1218,4.1214,4.1233,4.1245,4.1323,4.1348,4.131,4.1443,4.1411,4.1421,4.1424,4.1434,4.1442,4.1435,4.1289,0,0,0,0,0,4.0896,4.0952,4.1001,4.1072,4.1094,4.1127,4.116,4.117,4.1216,4.1234,4.1268,4.1311,4.1366,4.1401,4.1453,4.1539,4.1552,4.1577,4.1585,4.1591,4.16,4.1649,4.1661,4.153,4.153,4.153,0,0,4.0922,4.0963,4.0996,4.1075,4.1111,4.1168,4.1143,4.1203,4.1246,4.1243,4.1319,4.1345,4.1394,4.1477,4.1515,4.15,4.1639,4.1599,4.1603,4.1609,4.1656,4.1669,4.168,4.1534,4.1534,4.1533,0,0,4.1,4.1036,4.11,4.1136,4.1191,4.1212,4.1228,4.1281,4.1299,4.1376,4.1375,4.1425,4.1518,4.1554,4.1585,4.1678,4.1675,4.1694,4.1737,4.1785,4.1795,4.1804,4.1839,4.1851,4.1702,4.1702,4.1702,0,4.1026,4.1113,4.1132,4.1194,4.123,4.1231,4.1296,4.133,4.1398,4.1422,4.1405,4.1523,4.1556,4.1648,4.1672,4.1695,4.1714,4.1689,4.1792,4.1802,4.1811,4.1844,4.1857,4.1705,4.1704,4.1704,4.1704,0,4.1143,4.1203,4.1248,4.1316,4.1356,4.1419,4.1447,4.1485,4.1493,4.1516,4.1594,4.1635,4.1696,4.1718,4.1725,4.1812,4.1802,4.1788,4.1757,4.1825,4.1857,4.187,4.1708,4.1707,4.1706,4.1706,0,0,4.1231,4.1311,4.1327,4.1359,4.142,4.1466,4.1529,4.1591,4.1624,4.1671,4.1725,4.1804,4.1793,4.1827,4.1838,4.188,4.1954,4.1861,4.1863,4.1879,4.2054,4.2065,4.208,4.1951,4.1954,4.1956,4.205,0,4.1317,4.1431,4.1451,4.155,4.1607,4.161,4.1665,4.1708,4.1732,4.1783,4.1808,4.1865,4.1844,4.1866,4.1907,4.1936,4.1989,4.1929,4.2002,4.2004,4.1991,4.2096,4.2108,4.2195,4.2063,4.2065,4.2066,0,4.1432,4.1485,4.1591,4.1646,4.1671,4.172,4.1779,4.1828,4.1876,4.1891,4.1931,4.1937,4.2002,4.1968,4.2059,4.2018,4.2048,4.2067,4.2071,4.2079,4.2041,4.2109,4.2223,4.2237,4.2086,4.2084,4.2083,0,4.1489,4.1585,4.1662,4.1689,4.1755,4.179,4.1818,4.1865,4.1902,4.1953,4.1977,4.2034,4.2066,4.211,4.2131,4.2104,4.2221,4.2188,4.2235,4.2235,4.2261,4.2259,4.2383,4.2278,4.2278,4.2278,4.2277,0,4.1584,4.1649,4.1689,4.1736,4.1809,4.1831,4.1902,4.193,4.1972,4.2025,4.2029,4.2078,4.2103,4.2155,4.2172,4.2246,4.2259,4.2273,4.2277,4.2273,4.2272,4.2295,4.229,4.2281,4.228,4.228,4.2279,0,4.166,4.1689,4.1773,4.1829,4.1845,4.1896,4.1944,4.199,4.2013,4.208,4.2097,4.2134,4.2196,4.2221,4.2296,4.2308,4.2393,4.2391,4.2378,4.2379,4.2426,4.2422,4.257,4.2591,4.247,4.2472,4.2472,0,4.1719,4.177,4.1832,4.1869,4.1899,4.1957,4.1995,4.2018,4.2057,4.2118,4.2157,4.2219,4.2271,4.2369,4.2402,4.246,4.2461,4.2509,4.247,4.2466,4.2464,4.2462,4.2468,4.2517,4.2518,4.2519,4.252,0,4.1822,4.1835,4.189,4.1952,4.1997,4.2046,4.2093,4.2122,4.2153,4.2196,4.2261,4.2301,4.238,4.2442,4.2502,4.2531,4.2531,4.2532,4.2546,4.2544,4.2535,4.2543,4.2399,4.2529,4.2528,4.2527,4.2527,4.2526,4.1893,4.1939,4.1991,4.2053,4.2092,4.2137,4.2183,4.2214,4.2269,4.2336,4.2345,4.2415,4.2463,4.2545,4.2576,4.263,4.2617,4.2638,4.2643,4.2648,4.2653,4.2525,4.264,4.264,4.264,4.264,4.264,0,4.1999,4.2033,4.2089,4.2157,4.2206,4.2203,4.2256,4.2297,4.2358,4.2404,4.2456,4.2531,4.2591,4.263,4.2691,4.2727,4.2729,4.2742,4.2741,4.2748,4.2659,4.2642,4.274,4.274,4.274,4.274,4.274,4.274,4.2059,4.2138,4.2157,4.2255,4.2287,4.2357,4.2388,4.2429,4.2467,4.2551,4.2602,4.2627,4.267,4.2735,4.2791,4.28,4.2823,4.2838,4.2847,4.2764,4.2754,4.2744,4.2727,4.2842,4.2843,4.2931,4.2932,4.2933]}]]